This is the latest recevied weather packets stored in our database for station/object WA4ORT. If no packets are shown the sender has not sent any weather packets the latest 10 day(s).
| Time | Temp. | Humidity | Pressure | Rain* | Wind** | Luminosity | Snow |
|---|---|---|---|---|---|---|---|
| 1788567272 | 28.89° C | - | - | 0 mm | 2.68 m/s, 165° | - | - |
| 1788566374 | 30.56° C | - | - | 0 mm | 0.45 m/s, 62° | - | - |
| 1788565480 | 31.11° C | - | - | 0 mm | 0 m/s | - | - |
| 1788564585 | 31.67° C | - | - | 0 mm | 0 m/s | - | - |
| 1788563687 | 32.22° C | - | - | 0 mm | 0 m/s | - | - |
| 1788562792 | 32.22° C | - | - | 0 mm | 0 m/s | - | - |
| 1788561899 | 32.22° C | - | - | 0 mm | 0.89 m/s, 131° | - | - |
| 1788561001 | 32.22° C | - | - | 0 mm | 1.79 m/s, 183° | - | - |
| 1788560107 | 32.22° C | - | - | 0 mm | 0 m/s | - | - |
| 1788559212 | 32.78° C | - | - | 0 mm | 2.24 m/s, 166° | - | - |
| 1788557420 | 33.33° C | - | - | 0 mm | 0.89 m/s, 139° | - | - |
| 1788556526 | 33.89° C | - | - | 0 mm | 0.89 m/s, 124° | - | - |
| 1788555628 | 32.78° C | - | - | 0 mm | 0.89 m/s, 41° | - | - |
| 1788554734 | 32.78° C | - | - | 0 mm | 0.89 m/s, 346° | - | - |
| 1788553839 | 33.33° C | - | - | 0 mm | 1.79 m/s, 318° | - | - |
| 1788552942 | 33.33° C | - | - | 0 mm | 1.34 m/s, 39° | - | - |
| 1788552047 | 33.33° C | - | - | 0 mm | 0.89 m/s, 335° | - | - |
| 1788551153 | 32.22° C | - | - | 0 mm | 0.45 m/s, 120° | - | - |
| 1788550255 | 32.22° C | - | - | 0 mm | 1.79 m/s, 41° | - | - |
| 1788548510 | 31.67° C | - | - | 0 mm | 2.68 m/s, 18° | - | - |
| 1788548466 | 31.67° C | - | - | 0 mm | 2.68 m/s, 18° | - | - |
| 1788547569 | 32.22° C | - | - | 0 mm | 2.24 m/s, 248° | - | - |
| 1788546719 | 31.67° C | - | - | 0 mm | 1.79 m/s, 15° | - | - |
| 1788546674 | 31.67° C | - | - | 0 mm | 1.79 m/s, 15° | - | - |
| 1788545780 | 31.11° C | - | - | 0 mm | 2.24 m/s, 325° | - | - |
* Rain latest hour (hover to see other rain measurements)
** Current wind speed in m/s (hover to see current wind gust speed)